User: anonymous   Login
Location: Chippewa Lake
(41.0698°N, 81.9010°W)
Time: 07:46:02
(UTC+00:00)
Language:

Gblst 52 Del rocket - Orbit

View from above orbital plane
View from above orbital plane
View from above satellite
View from above satellite

Ground track
Ground track

The orbit data is extracted from the following two-line orbital elements,

1 25774U 99031E   21216.56528035 -.00000117  00000-0  19447-4 0  9992
2 25774  51.5264 155.9013 0375585  45.3282 121.8288 13.46469086 89757
Epoch (UTC): 04 August 2021 13:34:00
Eccentricity: 0.0375585
inclination: 51.5264°
perigee height: 805 km
apogee height: 1365 km
right ascension of ascending node: 155.9013°
argument of perigee: 45.3282°
revolutions per day: 13.46469086
mean anomaly at epoch: 121.8288°
orbit number at epoch: 8975

The dashed part of the orbit path shows where the satellite is in the earth's shadow,  

DLR